Terminal Aerodrome Forecast
Issued by NWS

Home | Current Version | Previous Version | Text Only | Print | Product List | Glossary On
Versions: 1 2 3 4 5 6 7 8 9 10 11 12 13 14
000
FTUS44 KLZK 202300
TAFBPK
TAF
KBPK 202320Z 2100/2124 VRB03KT P6SM SCT060 SCT250
      TEMPO 2108/2111 4SM BR
     FM211100 VRB02KT 3/4SM BR BKN005
     FM211400 VRB03KT P6SM SKC=

USA.gov is the U.S. government's official web portal to all federal, state and local government web resources and services.